,,Stat5,,Stat1,,Stat2,,Stat3,,Stat4,,Wind1,,Wind1,
time,status,PA1M_AVG,status,PR1M_SUM,status,RH1M_AVG,status,SR1M_AVG,status,TA1M_AVG,status,W1dAve1m,status,W1sAve1m,
2000-07-15, 00:00:00,VALID,918.111,VALID,0,VALID,94.5909,VALID,-0.0169808,VALID,17.8372,VALID,196,VALID,0,
2000-07-15, 00:01:00,VALID,918.092,VALID,0,VALID,95.2508,VALID,0,VALID,17.8399,VALID,196,VALID,0,
2000-07-15, 00:02:01,VALID,918.09,VALID,0,VALID,95.7645,VALID,-0.0169808,VALID,17.8729,VALID,196,VALID,0,
2000-07-15, 00:03:00,VALID,918.069,VALID,0,VALID,95.1936,VALID,0,VALID,17.8791,VALID,196,VALID,0,
2000-07-15, 00:04:01,VALID,918.036,VALID,0,VALID,94.774,VALID,-0.0169808,VALID,17.8535,VALID,196,VALID,0,
2000-07-15, 00:05:00,VALID,918.023,VALID,0,VALID,94.1343,VALID,-0.0169808,VALID,17.8085,VALID,202,VALID,0,
2000-07-15, 00:06:01,VALID,918.011,VALID,0,VALID,94.4026,VALID,-0.0169808,VALID,17.7597,VALID,219,VALID,0.00976563,
2000-07-15, 00:07:00,VALID,917.997,VALID,0,VALID,93.8953,VALID,-0.0509425,VALID,17.7211,VALID,217,VALID,0.590666,
2000-07-15, 00:08:01,VALID,917.988,VALID,0,VALID,92.7915,VALID,-0.0339617,VALID,17.6148,VALID,203,VALID,0.432927,
2000-07-15, 00:09:00,VALID,917.992,VALID,0,VALID,93.7656,VALID,-0.0169808,VALID,17.5143,VALID,182,VALID,0.479768,
2000-07-15, 00:10:00,VALID,917.988,VALID,0,VALID,95.411,VALID,0,VALID,17.5276,VALID,199,VALID,0.553209,
2000-07-15, 00:11:01,VALID,918.005,VALID,0,VALID,94.6506,VALID,0,VALID,17.4626,VALID,205,VALID,0.107525,
2000-07-15, 00:12:01,VALID,918.006,VALID,0,VALID,95.13,VALID,0,VALID,17.4365,VALID,229,VALID,0.441301,
2000-07-15, 00:13:00,VALID,918.005,VALID,0,VALID,95.9146,VALID,0,VALID,17.4628,VALID,234,VALID,0.485983,
2000-07-15, 00:14:01,VALID,918.006,VALID,0,VALID,96.3482,VALID,-0.0169808,VALID,17.4781,VALID,238,VALID,0.434261,
2000-07-15, 00:15:01,VALID,918.017,VALID,0,VALID,96.146,VALID,0,VALID,17.4757,VALID,236,VALID,0.667869,
2000-07-15, 00:16:00,VALID,918.004,VALID,0,VALID,96.3622,VALID,0,VALID,17.4626,VALID,236,VALID,0.490785,
2000-07-15, 00:17:00,VALID,918.007,VALID,0,VALID,97.1341,VALID,0,VALID,17.5013,VALID,236,VALID,0.445518,
2000-07-15, 00:18:01,VALID,917.992,VALID,0,VALID,97.6236,VALID,0,VALID,17.5823,VALID,236,VALID,0.280561,
2000-07-15, 00:19:00,VALID,917.991,VALID,0,VALID,97.6872,VALID,0,VALID,17.6473,VALID,236,VALID,0.280382,
2000-07-15, 00:20:00,VALID,917.979,VALID,0,VALID,97.7076,VALID,-0.0169808,VALID,17.6893,VALID,234,VALID,0.228693,
2000-07-15, 00:21:00,VALID,917.97,VALID,0,VALID,97.5779,VALID,0.0169808,VALID,17.7211,VALID,234,VALID,0,
2000-07-15, 00:22:00,VALID,917.955,VALID,0,VALID,97.4748,VALID,0,VALID,17.7343,VALID,234,VALID,0,
2000-07-15, 00:23:00,VALID,917.96,VALID,0,VALID,97.4278,VALID,0,VALID,17.7437,VALID,232,VALID,0,
2000-07-15, 00:24:00,VALID,917.958,VALID,0,VALID,97.644,VALID,0,VALID,17.7857,VALID,231,VALID,0,
2000-07-15, 00:25:01,VALID,917.958,VALID,0,VALID,97.1608,VALID,0,VALID,17.7954,VALID,231,VALID,0,
2000-07-15, 00:26:00,VALID,917.946,VALID,0,VALID,96.895,VALID,0,VALID,17.7829,VALID,231,VALID,0,
2000-07-15, 00:27:01,VALID,917.958,VALID,0,VALID,96.7068,VALID,-0.0169808,VALID,17.7633,VALID,231,VALID,0,
2000-07-15, 00:28:01,VALID,917.948,VALID,0,VALID,96.5377,VALID,-0.0509425,VALID,17.767,VALID,230,VALID,0,
2000-07-15, 00:29:01,VALID,917.942,VALID,0,VALID,96.4436,VALID,-0.0339617,VALID,17.7407,VALID,229,VALID,0,
2000-07-15, 00:30:00,VALID,917.943,VALID,0,VALID,96.3228,VALID,-0.0169808,VALID,17.7151,VALID,229,VALID,0,
2000-07-15, 00:31:01,VALID,917.926,VALID,0,VALID,96.0189,VALID,-0.0169808,VALID,17.6729,VALID,229,VALID,0,
2000-07-15, 00:32:00,VALID,917.916,VALID,0,VALID,96.3317,VALID,-0.0339617,VALID,17.6699,VALID,229,VALID,0,
2000-07-15, 00:33:00,VALID,917.922,VALID,0,VALID,96.1536,VALID,-0.0339617,VALID,17.6637,VALID,229,VALID,0,
2000-07-15, 00:34:00,VALID,917.895,VALID,0,VALID,95.6628,VALID,0,VALID,17.6152,VALID,228,VALID,0,
2000-07-15, 00:35:00,VALID,917.881,VALID,0,VALID,96.1969,VALID,0,VALID,17.6249,VALID,228,VALID,0,
2000-07-15, 00:36:00,VALID,917.875,VALID,0,VALID,96.0494,VALID,0,VALID,17.6219,VALID,219,VALID,0,
2000-07-15, 00:37:01,VALID,917.864,VALID,0,VALID,96.5389,VALID,-0.0169808,VALID,17.6381,VALID,215,VALID,0,
2000-07-15, 00:38:01,VALID,917.869,VALID,0,VALID,96.1498,VALID,0,VALID,17.6957,VALID,215,VALID,0,
2000-07-15, 00:39:01,VALID,917.871,VALID,0,VALID,94.8414,VALID,-0.0339617,VALID,17.6858,VALID,215,VALID,0,
2000-07-15, 00:40:01,VALID,917.878,VALID,0,VALID,94.5794,VALID,0,VALID,17.6796,VALID,215,VALID,0,
2000-07-15, 00:41:01,VALID,917.879,VALID,0,VALID,94.4904,VALID,0,VALID,17.6404,VALID,215,VALID,0,
2000-07-15, 00:42:00,VALID,917.881,VALID,0,VALID,94.0669,VALID,0,VALID,17.6245,VALID,215,VALID,0,
2000-07-15, 00:43:01,VALID,917.868,VALID,0,VALID,94.8998,VALID,0,VALID,17.6088,VALID,214,VALID,0,
2000-07-15, 00:44:01,VALID,917.867,VALID,0,VALID,95.6577,VALID,-0.0169808,VALID,17.6277,VALID,205,VALID,0,
2000-07-15, 00:45:01,VALID,917.853,VALID,0,VALID,95.1504,VALID,0,VALID,17.6471,VALID,179,VALID,0,
2000-07-15, 00:46:01,VALID,917.852,VALID,0,VALID,94.8909,VALID,-0.0339617,VALID,17.657,VALID,174,VALID,0,
2000-07-15, 00:47:01,VALID,917.843,VALID,0,VALID,94.1547,VALID,-0.0169808,VALID,17.6761,VALID,173,VALID,0,
2000-07-15, 00:48:01,VALID,917.849,VALID,0,VALID,93.468,VALID,-0.0169808,VALID,17.6508,VALID,173,VALID,0,
2000-07-15, 00:49:01,VALID,917.835,VALID,0,VALID,93.8228,VALID,0,VALID,17.6309,VALID,173,VALID,0,
2000-07-15, 00:50:01,VALID,917.831,VALID,0,VALID,93.7249,VALID,-0.0339617,VALID,17.6279,VALID,173,VALID,0,
2000-07-15, 00:51:01,VALID,917.809,VALID,0,VALID,94.4332,VALID,0,VALID,17.6475,VALID,173,VALID,0,
2000-07-15, 00:52:01,VALID,917.782,VALID,0,VALID,94.6354,VALID,0,VALID,17.6637,VALID,172,VALID,0,
2000-07-15, 00:53:01,VALID,917.756,VALID,0,VALID,94.0708,VALID,0,VALID,17.6409,VALID,167,VALID,0,
2000-07-15, 00:54:01,VALID,917.737,VALID,0,VALID,93.5761,VALID,-0.0169808,VALID,17.6023,VALID,167,VALID,0,
2000-07-15, 00:55:01,VALID,917.721,VALID,0,VALID,92.9238,VALID,-0.0169808,VALID,17.5345,VALID,167,VALID,0,
2000-07-15, 00:56:01,VALID,917.716,VALID,0,VALID,93.243,VALID,0,VALID,17.4665,VALID,167,VALID,0,
2000-07-15, 00:57:01,VALID,917.708,VALID,0,VALID,94.5107,VALID,-0.0169808,VALID,17.4185,VALID,167,VALID,0,
2000-07-15, 00:58:01,VALID,917.706,VALID,0,VALID,95.411,VALID,-0.0339617,VALID,17.4122,VALID,178,VALID,0,
2000-07-15, 00:59:01,VALID,917.683,VALID,0,VALID,95.3525,VALID,0,VALID,17.3866,VALID,187,VALID,0,
2000-07-15, 01:00:01,VALID,917.68,VALID,0,VALID,95.0639,VALID,0,VALID,17.3507,VALID,187,VALID,0,
2000-07-15, 01:01:01,VALID,917.66,VALID,0,VALID,95.1453,VALID,0,VALID,17.3216,VALID,187,VALID,0,
2000-07-15, 01:02:01,VALID,917.638,VALID,0,VALID,94.9126,VALID,0,VALID,17.2661,VALID,187,VALID,0,
2000-07-15, 01:03:00,VALID,917.611,VALID,0,VALID,94.8223,VALID,-0.0169808,VALID,17.2144,VALID,187,VALID,0,
2000-07-15, 01:04:00,VALID,917.579,VALID,0,VALID,95.5865,VALID,0,VALID,17.1989,VALID,176,VALID,0,
2000-07-15, 01:05:00,VALID,917.559,VALID,0,VALID,96.0176,VALID,0,VALID,17.1953,VALID,153,VALID,0,
2000-07-15, 01:06:00,VALID,917.541,VALID,0,VALID,95.8497,VALID,-0.0169808,VALID,17.2026,VALID,140,VALID,0,
2000-07-15, 01:07:00,VALID,917.521,VALID,0,VALID,95.8777,VALID,-0.0169808,VALID,17.2151,VALID,123,VALID,0,
2000-07-15, 01:08:00,VALID,917.502,VALID,0,VALID,94.7422,VALID,-0.0169808,VALID,17.1832,VALID,115,VALID,0,
2000-07-15, 01:09:00,VALID,917.499,VALID,0,VALID,95.7518,VALID,0,VALID,17.2282,VALID,62,VALID,0,
2000-07-15, 01:10:00,VALID,917.495,VALID,0,VALID,95.5789,VALID,-0.0169808,VALID,17.2665,VALID,58,VALID,0,
2000-07-15, 01:11:00,VALID,917.471,VALID,0,VALID,96.0748,VALID,0,VALID,17.3444,VALID,68,VALID,0,
2000-07-15, 01:12:00,VALID,917.469,VALID,0,VALID,95.9082,VALID,0,VALID,17.3954,VALID,68,VALID,0,
2000-07-15, 01:13:00,VALID,917.464,VALID,0,VALID,96.0837,VALID,-0.0169808,VALID,17.4605,VALID,67,VALID,0,
2000-07-15, 01:14:00,VALID,917.46,VALID,0,VALID,96.0303,VALID,-0.0339617,VALID,17.5382,VALID,63,VALID,0,
2000-07-15, 01:15:00,VALID,917.442,VALID,0,VALID,95.5598,VALID,-0.0169808,VALID,17.5737,VALID,63,VALID,0,
2000-07-15, 01:16:00,VALID,917.425,VALID,0,VALID,95.2012,VALID,-0.0169808,VALID,17.5765,VALID,63,VALID,0,
2000-07-15, 01:17:00,VALID,917.399,VALID,0,VALID,94.5298,VALID,-0.0169808,VALID,17.567,VALID,63,VALID,0,
2000-07-15, 01:18:00,VALID,917.391,VALID,0,VALID,93.6117,VALID,-0.0169808,VALID,17.5322,VALID,67,VALID,0,
2000-07-15, 01:19:00,VALID,917.388,VALID,0,VALID,93.2824,VALID,0,VALID,17.477,VALID,67,VALID,0,
2000-07-15, 01:20:00,VALID,917.389,VALID,0,VALID,93.4388,VALID,-0.0339617,VALID,17.4577,VALID,67,VALID,0,
2000-07-15, 01:21:00,VALID,917.375,VALID,0,VALID,93.6384,VALID,-0.0169808,VALID,17.4508,VALID,67,VALID,0,
2000-07-15, 01:22:00,VALID,917.381,VALID,0,VALID,93.5634,VALID,-0.0169808,VALID,17.4475,VALID,67,VALID,0,
2000-07-15, 01:23:00,VALID,917.37,VALID,0,VALID,92.7216,VALID,0,VALID,17.4351,VALID,67,VALID,0,
2000-07-15, 01:24:00,VALID,917.365,VALID,0,VALID,93.2773,VALID,0,VALID,17.4155,VALID,67,VALID,0,
2000-07-15, 01:25:00,VALID,917.359,VALID,0,VALID,93.5952,VALID,0,VALID,17.389,VALID,67,VALID,0,
2000-07-15, 01:26:00,VALID,917.354,VALID,0,VALID,94.7854,VALID,0,VALID,17.4058,VALID,67,VALID,0,
2000-07-15, 01:27:00,VALID,917.351,VALID,0,VALID,95.0817,VALID,0,VALID,17.4383,VALID,67,VALID,0,
2000-07-15, 01:28:00,VALID,917.365,VALID,0,VALID,94.9901,VALID,-0.0169808,VALID,17.4247,VALID,67,VALID,0,
2000-07-15, 01:29:00,VALID,917.351,VALID,0,VALID,93.955,VALID,0,VALID,17.3731,VALID,98,VALID,0,
2000-07-15, 01:30:00,VALID,917.333,VALID,0,VALID,92.6771,VALID,0,VALID,17.2923,VALID,131,VALID,0.286133,
2000-07-15, 01:31:00,VALID,917.322,VALID,0,VALID,94.2412,VALID,0.0169808,VALID,17.2545,VALID,131,VALID,0.232772,
2000-07-15, 01:32:00,VALID,917.314,VALID,0,VALID,95.7467,VALID,0,VALID,17.2768,VALID,124,VALID,0.446205,
2000-07-15, 01:33:00,VALID,917.289,VALID,0,VALID,95.8179,VALID,0,VALID,17.2695,VALID,121,VALID,0.389147,
2000-07-15, 01:34:00,VALID,917.285,VALID,0,VALID,96.1791,VALID,0,VALID,17.2895,VALID,122,VALID,0.327665,
2000-07-15, 01:35:00,VALID,917.28,VALID,0,VALID,96.3838,VALID,-0.0169808,VALID,17.3285,VALID,122,VALID,0.151816,
2000-07-15, 01:36:00,VALID,917.274,VALID,0,VALID,96.2058,VALID,0,VALID,17.3442,VALID,130,VALID,0,
2000-07-15, 01:37:00,VALID,917.281,VALID,0,VALID,95.8904,VALID,-0.0169808,VALID,17.3378,VALID,133,VALID,0,
2000-07-15, 01:38:00,VALID,917.278,VALID,0,VALID,95.4047,VALID,0,VALID,17.3119,VALID,132,VALID,0,
2000-07-15, 01:39:00,VALID,917.271,VALID,0,VALID,95.7073,VALID,0,VALID,17.3121,VALID,133,VALID,0,
2000-07-15, 01:40:00,VALID,917.25,VALID,0,VALID,96.0354,VALID,0.0169808,VALID,17.3152,VALID,133,VALID,0,
2000-07-15, 01:41:00,VALID,917.23,VALID,0,VALID,96.3914,VALID,0.0339617,VALID,17.324,VALID,133,VALID,0,
2000-07-15, 01:42:00,VALID,917.211,VALID,0,VALID,96.8289,VALID,0.0679233,VALID,17.3664,VALID,136,VALID,0,
2000-07-15, 01:43:00,VALID,917.18,VALID,0,VALID,97.0272,VALID,0.0509425,VALID,17.431,VALID,157,VALID,0,
2000-07-15, 01:44:00,VALID,917.179,VALID,0,VALID,96.8963,VALID,0.0339617,VALID,17.4564,VALID,159,VALID,0,
2000-07-15, 01:45:00,VALID,917.171,VALID,0,VALID,96.8874,VALID,0.0169808,VALID,17.4854,VALID,174,VALID,0,
2000-07-15, 01:46:00,VALID,917.153,VALID,0,VALID,96.8162,VALID,0.0849042,VALID,17.5272,VALID,176,VALID,0,
2000-07-15, 01:47:00,VALID,917.136,VALID,0,VALID,96.483,VALID,0.0339617,VALID,17.5269,VALID,176,VALID,0,
2000-07-15, 01:48:00,VALID,917.114,VALID,0,VALID,96.2223,VALID,0.0169808,VALID,17.5438,VALID,176,VALID,0,
2000-07-15, 01:49:00,VALID,917.103,VALID,0,VALID,95.9616,VALID,0.0679233,VALID,17.5043,VALID,176,VALID,0,
2000-07-15, 01:50:00,VALID,917.092,VALID,0,VALID,96.1829,VALID,0.0849042,VALID,17.5115,VALID,176,VALID,0,
2000-07-15, 01:51:00,VALID,917.097,VALID,0,VALID,96.4131,VALID,0.0849042,VALID,17.5242,VALID,163,VALID,0,
2000-07-15, 01:52:00,VALID,917.1,VALID,0,VALID,96.3507,VALID,0.0509425,VALID,17.544,VALID,153,VALID,0,
2000-07-15, 01:53:00,VALID,917.122,VALID,0,VALID,96.4944,VALID,0.0339617,VALID,17.5634,VALID,153,VALID,0,
2000-07-15, 01:54:00,VALID,917.133,VALID,0,VALID,96.2795,VALID,0.0339617,VALID,17.5793,VALID,162,VALID,0,
2000-07-15, 01:55:00,VALID,917.135,VALID,0,VALID,95.0575,VALID,0.0509425,VALID,17.5274,VALID,188,VALID,0,
2000-07-15, 01:56:00,VALID,917.117,VALID,0,VALID,95.0791,VALID,-0.0339617,VALID,17.4538,VALID,188,VALID,0,
2000-07-15, 01:57:00,VALID,917.106,VALID,0,VALID,95.9006,VALID,-0.0849042,VALID,17.439,VALID,188,VALID,0,
2000-07-15, 01:58:00,VALID,917.095,VALID,0,VALID,95.631,VALID,-0.0679233,VALID,17.3869,VALID,188,VALID,0,
2000-07-15, 01:59:00,VALID,917.086,VALID,0,VALID,95.7429,VALID,-0.0849042,VALID,17.3453,VALID,188,VALID,0,
2000-07-15, 02:00:00,VALID,917.081,VALID,0,VALID,95.968,VALID,-0.101885,VALID,17.2904,VALID,188,VALID,0,
2000-07-15, 02:01:00,VALID,917.071,VALID,0,VALID,96.7691,VALID,-0.0849042,VALID,17.319,VALID,188,VALID,0,
2000-07-15, 02:02:00,VALID,917.052,VALID,0,VALID,97.0438,VALID,-0.0679233,VALID,17.3449,VALID,188,VALID,0,
2000-07-15, 02:03:00,VALID,917.043,VALID,0,VALID,97.2956,VALID,-0.0849042,VALID,17.3935,VALID,151,VALID,0,
2000-07-15, 02:04:00,VALID,917.029,VALID,0,VALID,97.1582,VALID,-0.0849042,VALID,17.4353,VALID,132,VALID,0,
2000-07-15, 02:05:00,VALID,917.028,VALID,0,VALID,96.8136,VALID,-0.0849042,VALID,17.4514,VALID,134,VALID,0,
2000-07-15, 02:06:00,VALID,917.027,VALID,0,VALID,96.4779,VALID,-0.0679233,VALID,17.4484,VALID,151,VALID,0,
2000-07-15, 02:07:00,VALID,917.031,VALID,0,VALID,95.9972,VALID,-0.0679233,VALID,17.4028,VALID,154,VALID,0,
2000-07-15, 02:08:00,VALID,917.01,VALID,0,VALID,96.0011,VALID,-0.0679233,VALID,17.364,VALID,157,VALID,0,
2000-07-15, 02:09:00,VALID,916.996,VALID,0,VALID,96.1053,VALID,-0.0849042,VALID,17.3483,VALID,157,VALID,0,
2000-07-15, 02:10:00,VALID,916.98,VALID,0,VALID,96.0952,VALID,-0.101885,VALID,17.3197,VALID,157,VALID,0,
2000-07-15, 02:11:00,VALID,916.969,VALID,0,VALID,96.4499,VALID,-0.0169808,VALID,17.2891,VALID,157,VALID,0,
2000-07-15, 02:12:00,VALID,916.953,VALID,0,VALID,96.82,VALID,0.0169808,VALID,17.2919,VALID,157,VALID,0,
2000-07-15, 02:13:00,VALID,916.944,VALID,0,VALID,96.9967,VALID,0.0509425,VALID,17.3177,VALID,157,VALID,0,
2000-07-15, 02:14:00,VALID,916.932,VALID,0,VALID,97.0641,VALID,0.0169808,VALID,17.3177,VALID,157,VALID,0,
2000-07-15, 02:15:00,VALID,916.932,VALID,0,VALID,97.0285,VALID,0,VALID,17.3177,VALID,157,VALID,0,
2000-07-15, 02:16:00,VALID,916.923,VALID,0,VALID,96.984,VALID,0.0339617,VALID,17.3274,VALID,157,VALID,0,
2000-07-15, 02:17:00,VALID,916.928,VALID,0,VALID,96.8899,VALID,0.0169808,VALID,17.308,VALID,157,VALID,0,
2000-07-15, 02:18:00,VALID,916.945,VALID,0,VALID,96.7335,VALID,0,VALID,17.3085,VALID,157,VALID,0,
2000-07-15, 02:19:00,VALID,916.948,VALID,0,VALID,96.9014,VALID,0,VALID,17.3115,VALID,157,VALID,0,
2000-07-15, 02:20:00,VALID,916.943,VALID,0,VALID,97.0171,VALID,0.0509425,VALID,17.2949,VALID,157,VALID,0,
2000-07-15, 02:21:00,VALID,916.931,VALID,0,VALID,97.7584,VALID,0,VALID,17.3916,VALID,157,VALID,0,
2000-07-15, 02:22:00,VALID,916.922,VALID,0,VALID,97.5435,VALID,0,VALID,17.4015,VALID,157,VALID,0,
2000-07-15, 02:23:00,VALID,916.901,VALID,0,VALID,96.895,VALID,0,VALID,17.3634,VALID,155,VALID,0,
2000-07-15, 02:24:00,VALID,916.875,VALID,0,VALID,96.7844,VALID,0.0509425,VALID,17.3207,VALID,155,VALID,0,
2000-07-15, 02:25:00,VALID,916.861,VALID,0,VALID,96.8085,VALID,0.0169808,VALID,17.3016,VALID,155,VALID,0,
2000-07-15, 02:26:00,VALID,916.838,VALID,0,VALID,96.9878,VALID,-0.0339617,VALID,17.2962,VALID,155,VALID,0,
2000-07-15, 02:27:00,VALID,916.813,VALID,0,VALID,96.8963,VALID,-0.101885,VALID,17.2708,VALID,155,VALID,0,
2000-07-15, 02:28:00,VALID,916.777,VALID,0,VALID,96.8441,VALID,-0.0679233,VALID,17.2387,VALID,155,VALID,0,
2000-07-15, 02:29:00,VALID,916.77,VALID,0,VALID,96.628,VALID,-0.0679233,VALID,17.1834,VALID,155,VALID,0,
2000-07-15, 02:30:00,VALID,916.753,VALID,0,VALID,96.4283,VALID,-0.0509425,VALID,17.135,VALID,155,VALID,0,
2000-07-15, 02:31:00,VALID,916.743,VALID,0,VALID,96.4118,VALID,-0.0679233,VALID,17.0896,VALID,155,VALID,0,
2000-07-15, 02:32:00,VALID,916.738,VALID,0,VALID,97.1163,VALID,-0.0679233,VALID,17.1124,VALID,155,VALID,0,
2000-07-15, 02:33:00,VALID,916.745,VALID,0,VALID,97.5524,VALID,-0.101885,VALID,17.1671,VALID,155,VALID,0,
2000-07-15, 02:34:00,VALID,916.739,VALID,0,VALID,97.7254,VALID,-0.0849042,VALID,17.2254,VALID,155,VALID,0,
2000-07-15, 02:35:00,VALID,916.749,VALID,0,VALID,97.7813,VALID,-0.0679233,VALID,17.2381,VALID,155,VALID,0,
2000-07-15, 02:36:00,VALID,916.741,VALID,0,VALID,97.7215,VALID,-0.0849042,VALID,17.2517,VALID,155,VALID,0,
2000-07-15, 02:37:00,VALID,916.736,VALID,0,VALID,97.6338,VALID,-0.0849042,VALID,17.2222,VALID,155,VALID,0,
2000-07-15, 02:38:00,VALID,916.718,VALID,0,VALID,98.3077,VALID,-0.0849042,VALID,17.2994,VALID,155,VALID,0,
2000-07-15, 02:39:00,VALID,916.73,VALID,0,VALID,98.3586,VALID,-0.0849042,VALID,17.397,VALID,155,VALID,0,
2000-07-15, 02:40:00,VALID,916.714,VALID,0,VALID,97.8169,VALID,-0.0679233,VALID,17.3451,VALID,155,VALID,0,
2000-07-15, 02:41:00,VALID,916.714,VALID,0,VALID,97.4939,VALID,-0.0509425,VALID,17.2999,VALID,155,VALID,0,
2000-07-15, 02:42:00,VALID,916.721,VALID,0,VALID,97.3337,VALID,-0.0169808,VALID,17.2575,VALID,155,VALID,0,
2000-07-15, 02:43:00,VALID,916.71,VALID,0,VALID,97.4685,VALID,-0.0339617,VALID,17.2639,VALID,155,VALID,0,
2000-07-15, 02:44:00,VALID,916.715,VALID,0,VALID,97.658,VALID,-0.0339617,VALID,17.2872,VALID,155,VALID,0,
2000-07-15, 02:45:00,VALID,916.717,VALID,0,VALID,97.7699,VALID,-0.0509425,VALID,17.293,VALID,155,VALID,0,
2000-07-15, 02:46:00,VALID,916.695,VALID,0,VALID,97.8843,VALID,-0.0169808,VALID,17.3089,VALID,155,VALID,0,
2000-07-15, 02:47:00,VALID,916.673,VALID,0,VALID,98.2073,VALID,-0.0169808,VALID,17.3511,VALID,155,VALID,0,
2000-07-15, 02:48:00,VALID,916.651,VALID,0,VALID,98.379,VALID,0,VALID,17.4028,VALID,155,VALID,0,
2000-07-15, 02:49:00,VALID,916.621,VALID,0,VALID,98.5239,VALID,-0.0339617,VALID,17.4671,VALID,155,VALID,0,
2000-07-15, 02:50:00,VALID,916.601,VALID,0,VALID,98.4095,VALID,0,VALID,17.4932,VALID,155,VALID,0,
2000-07-15, 02:51:00,VALID,916.571,VALID,0,VALID,98.4705,VALID,-0.0509425,VALID,17.5061,VALID,155,VALID,0,
2000-07-15, 02:52:00,VALID,916.566,VALID,0,VALID,98.3154,VALID,-0.0509425,VALID,17.5091,VALID,155,VALID,0,
2000-07-15, 02:53:00,VALID,916.55,VALID,0,VALID,98.1793,VALID,-0.0339617,VALID,17.454,VALID,155,VALID,0,
2000-07-15, 02:54:00,VALID,916.55,VALID,0,VALID,98.3192,VALID,-0.0169808,VALID,17.4803,VALID,155,VALID,0,
2000-07-15, 02:55:00,VALID,916.535,VALID,0,VALID,98.2429,VALID,-0.0169808,VALID,17.474,VALID,155,VALID,0,
2000-07-15, 02:56:00,VALID,916.523,VALID,0,VALID,98.2454,VALID,-0.0679233,VALID,17.4676,VALID,155,VALID,0,
2000-07-15, 02:57:00,VALID,916.517,VALID,0,VALID,98.3446,VALID,-0.0169808,VALID,17.474,VALID,155,VALID,0,
2000-07-15, 02:58:00,VALID,916.522,VALID,0,VALID,98.2899,VALID,-0.0849042,VALID,17.4579,VALID,155,VALID,0,
2000-07-15, 02:59:00,VALID,916.515,VALID,0,VALID,98.2887,VALID,-0.0339617,VALID,17.4484,VALID,155,VALID,0,
2000-07-15, 03:00:00,VALID,916.521,VALID,0,VALID,98.4578,VALID,-0.0679233,VALID,17.4577,VALID,155,VALID,0,
2000-07-15, 03:01:00,VALID,916.516,VALID,0,VALID,98.5722,VALID,-0.0339617,VALID,17.4934,VALID,155,VALID,0,
2000-07-15, 03:02:00,VALID,916.51,VALID,0,VALID,98.6587,VALID,-0.0339617,VALID,17.5192,VALID,158,VALID,0,
2000-07-15, 03:03:00,VALID,916.505,VALID,0,VALID,98.7465,VALID,-0.0339617,VALID,17.5612,VALID,173,VALID,0,
2000-07-15, 03:04:00,VALID,916.525,VALID,0,VALID,98.6511,VALID,-0.0339617,VALID,17.561,VALID,183,VALID,0,
2000-07-15, 03:05:00,VALID,916.523,VALID,0,VALID,98.3052,VALID,-0.0679233,VALID,17.4997,VALID,220,VALID,0.34924,
2000-07-15, 03:06:00,VALID,916.522,VALID,0,VALID,98.2213,VALID,-0.0169808,VALID,17.4185,VALID,225,VALID,0.587646,
2000-07-15, 03:07:00,VALID,916.521,VALID,0,VALID,98.4998,VALID,-0.0169808,VALID,17.442,VALID,225,VALID,0.702324,
2000-07-15, 03:08:00,VALID,916.512,VALID,0,VALID,98.4616,VALID,-0.0339617,VALID,17.4254,VALID,225,VALID,0.552009,
2000-07-15, 03:09:00,VALID,916.5,VALID,0,VALID,98.5137,VALID,-0.0169808,VALID,17.4219,VALID,225,VALID,0.189823,
2000-07-15, 03:10:00,VALID,916.5,VALID,0,VALID,98.4044,VALID,0,VALID,17.3696,VALID,225,VALID,0,
2000-07-15, 03:11:00,VALID,916.488,VALID,0,VALID,98.646,VALID,0.0169808,VALID,17.3961,VALID,225,VALID,0,
2000-07-15, 03:12:00,VALID,916.483,VALID,0,VALID,98.8355,VALID,-0.0339617,VALID,17.4282,VALID,225,VALID,0,
2000-07-15, 03:13:00,VALID,916.476,VALID,0,VALID,99.0224,VALID,-0.0169808,VALID,17.5031,VALID,225,VALID,0,
2000-07-15, 03:14:00,VALID,916.468,VALID,0,VALID,99.1089,VALID,-0.0169808,VALID,17.5935,VALID,225,VALID,0,
2000-07-15, 03:15:00,VALID,916.466,VALID,0,VALID,99.0237,VALID,-0.0679233,VALID,17.603,VALID,225,VALID,0,
2000-07-15, 03:16:00,VALID,916.456,VALID,0,VALID,98.8075,VALID,-0.0339617,VALID,17.5675,VALID,215,VALID,0.0576746,
2000-07-15, 03:17:00,VALID,916.446,VALID,0,VALID,98.5506,VALID,-0.0339617,VALID,17.4641,VALID,188,VALID,0.330025,
2000-07-15, 03:18:00,VALID,916.434,VALID,0,VALID,98.2632,VALID,-0.0339617,VALID,17.3507,VALID,179,VALID,0.399902,
2000-07-15, 03:19:00,VALID,916.438,VALID,0,VALID,98.178,VALID,0,VALID,17.2667,VALID,174,VALID,0.263421,
2000-07-15, 03:20:00,VALID,916.423,VALID,0,VALID,98.0509,VALID,-0.0509425,VALID,17.186,VALID,174,VALID,0,
2000-07-15, 03:21:00,VALID,916.439,VALID,0,VALID,98.2925,VALID,-0.0339617,VALID,17.1638,VALID,174,VALID,0,
2000-07-15, 03:22:00,VALID,916.427,VALID,0,VALID,98.4896,VALID,-0.0509425,VALID,17.1892,VALID,174,VALID,0,
2000-07-15, 03:23:00,VALID,916.424,VALID,0,VALID,98.4413,VALID,-0.0339617,VALID,17.1636,VALID,174,VALID,0,
2000-07-15, 03:24:00,VALID,916.414,VALID,0,VALID,98.7223,VALID,-0.0339617,VALID,17.1795,VALID,174,VALID,0,
2000-07-15, 03:25:00,VALID,916.399,VALID,0,VALID,98.7795,VALID,-0.0169808,VALID,17.2217,VALID,189,VALID,0,
2000-07-15, 03:26:00,VALID,916.376,VALID,0,VALID,98.5137,VALID,-0.0339617,VALID,17.1791,VALID,211,VALID,0,
2000-07-15, 03:27:00,VALID,916.358,VALID,0,VALID,98.1513,VALID,-0.0169808,VALID,17.0831,VALID,218,VALID,0,
2000-07-15, 03:28:00,VALID,916.364,VALID,0,VALID,97.5206,VALID,-0.0339617,VALID,16.9281,VALID,224,VALID,0,
2000-07-15, 03:29:00,VALID,916.363,VALID,0,VALID,97.4062,VALID,-0.0509425,VALID,16.7764,VALID,223,VALID,0,
2000-07-15, 03:30:00,VALID,916.376,VALID,0,VALID,97.5651,VALID,-0.0169808,VALID,16.7054,VALID,222,VALID,0,
2000-07-15, 03:31:00,VALID,916.387,VALID,0,VALID,97.6936,VALID,-0.0339617,VALID,16.6505,VALID,222,VALID,0,
2000-07-15, 03:32:00,VALID,916.377,VALID,0,VALID,97.8627,VALID,-0.0339617,VALID,16.6182,VALID,222,VALID,0,
2000-07-15, 03:33:00,VALID,916.382,VALID,0,VALID,98.3421,VALID,-0.0339617,VALID,16.6339,VALID,222,VALID,0,
2000-07-15, 03:34:00,VALID,916.384,VALID,0,VALID,98.8393,VALID,-0.0339617,VALID,16.7381,VALID,222,VALID,0,
2000-07-15, 03:35:00,VALID,916.384,VALID,0,VALID,99.0491,VALID,-0.0169808,VALID,16.8476,VALID,222,VALID,0,
2000-07-15, 03:36:00,VALID,916.395,VALID,0,VALID,98.9652,VALID,-0.0509425,VALID,16.8928,VALID,222,VALID,0,
2000-07-15, 03:37:00,VALID,916.389,VALID,0,VALID,98.9474,VALID,-0.0169808,VALID,16.8928,VALID,207,VALID,0,
2000-07-15, 03:38:00,VALID,916.388,VALID,0,VALID,98.7592,VALID,0,VALID,16.8248,VALID,192,VALID,0,
2000-07-15, 03:39:00,VALID,916.381,VALID,0,VALID,98.7795,VALID,0,VALID,16.7831,VALID,192,VALID,0,
2000-07-15, 03:40:00,VALID,916.38,VALID,0,VALID,98.9181,VALID,-0.0339617,VALID,16.7927,VALID,191,VALID,0,
2000-07-15, 03:41:00,VALID,916.372,VALID,0,VALID,98.9753,VALID,0,VALID,16.7992,VALID,191,VALID,0,
2000-07-15, 03:42:00,VALID,916.367,VALID,0,VALID,98.9092,VALID,0,VALID,16.7788,VALID,191,VALID,0,
2000-07-15, 03:43:00,VALID,916.363,VALID,0,VALID,98.7439,VALID,0.0169808,VALID,16.7172,VALID,191,VALID,0,
2000-07-15, 03:44:00,VALID,916.356,VALID,0,VALID,98.5328,VALID,0.0169808,VALID,16.6303,VALID,191,VALID,0,